Regional Weather Roundup
Issued by NWS

Home | Current Version | Previous Version | Text Only | Print | Product List | Glossary On
Versions: 1 2 3 4 5 6 7 8 9 10 11 12 13 14 15 16 17 18 19 20 21 22 23 24 25 26 27 28 29 30 31 32 33 34 35 36 37 38 39 40 41 42 43 44 45 46 47 48 49 50
000
ASUS43 KLOT 240708
RWRIL

ILLINOIS REGIONAL WEATHER ROUNDUP
NATIONAL WEATHER SERVICE CHICAGO/ROMEOVILLE IL
200 AM CDT SAT JUN 24 2017

NOTE: "FAIR" INDICATES FEW OR NO CLOUDS BELOW 12,000 FEET WITH NO
SIGNIFICANT WEATHER AND/OR OBSTRUCTIONS TO VISIBILITY.

* THESE STATIONS ARE NOT UNDER NWS QUALITY CONTROL. THEY ALSO MAY NOT
  REPORT WEATHER SUCH AS PRECIPITATION OR FOG.

ILZ001-002-007-009-015-016-024-240800-
NORTHWEST ILLINOIS

CITY           SKY/WX    TMP DP  RH WIND       PRES   REMARKS
MOLINE         PTCLDY    65  55  70 W10       29.95F
STERLING*      CLEAR     61  56  83 W8        29.93F
SAVANNA*       PTCLDY    63  56  76 NW8       29.93S
$$

ILZ003-004-008-010-011-017-018-240800-
NORTH CENTRAL ILLINOIS

CITY           SKY/WX    TMP DP  RH WIND       PRES   REMARKS
ROCKFORD       CLEAR     62  56  80 W9        29.91R
FREEPORT*      PTCLDY    60  55  82 W10       29.93S
ROCHELLE*      PTCLDY    61  56  83 W8        29.91F
DE KALB*       PTCLDY    62  56  81 W14       29.90F
PERU*          CLEAR     61  55  82 W9        29.92S
$$

ILZ005-006-012>014-019>023-240800-
NORTHEAST ILLINOIS

CITY           SKY/WX    TMP DP  RH WIND       PRES   REMARKS
CHICAGO-OHARE  PTCLDY    66  54  65 W12       29.87R
CHICAGO-MIDWAY PTCLDY    66  55  67 W13       29.87S
AURORA         PTCLDY    61  57  87 W10       29.90S
LANSING*       CLEAR     64  53  66 NW7       29.88R
JOLIET*        CLEAR     64  58  81 CALM      29.89F
WAUKEGAN       PTCLDY    63  55  75 VRB3      29.85R
DUPAGE AIRPORT PTCLDY    63  57  81 W10       29.88S
WHEELING       PTCLDY    64  56  75 W9        29.88R
MORRIS*        CLEAR     60  56  88 W8        29.89S
ROMEOVILLE*    CLEAR     62  55  78 W7        29.89S
NORTHERLY ISL    N/A     67  53  61 W7          N/A
$$

LMZ740>746-240800-
SOUTHERN LAKE MICHIGAN

STATION/POSITION SKY/WX   TEMP    WIND        PRES    VSBY  WAVE
                          AIR SEA DIR/SP/G                  HT/PER
                          (F)     (DEG/KT/KT) (MB)    (MI)  (FT/S)
SOUTHERN BUOY              64 62  300/ 12/ 14 1009.7R         2/ 4
WILMETTE HARBOR            65 64  270/ 12/ 14   N/A           1/ 3
HARRISON CRIB              68     290/ 14/ 15   N/A
BURNHAM HARBOR             67                   N/A
CALUMET HARBOR             67     280/  6/  9 1011.0R
BURNS HARBOR               68     300/ 13/ 15 1011.5R
MICHIGAN CITY              67     280/ 18/ 20   N/A
MICHIGAN CITY 6N           68 68  300/ 16/ 19   N/A           3/ 4
ST. JOSEPH                 67 68  320/ 16/ 19 1010.3          3/ 3
$$

ILZ025>027-034>036-040-047-049-050-058-095>099-240800-
WEST-CENTRAL ILLINOIS

CITY           SKY/WX    TMP DP  RH WIND       PRES   REMARKS
QUINCY         PTCLDY    61  56  83 W5        30.00S
GALESBURG*     CLEAR     59  55  89 W7        29.97S
MACOMB*        PTCLDY    58  55  89 W7        30.00S
JACKSONVILLE*  CLEAR     62  55  76 W6        29.99S
PITTSFIELD*    CLEAR     64  56  77 W3        30.02R
$$

ILZ028>032-037-038-041>044-048-051>054-059>061-240800-
CENTRAL ILLINOIS

CITY           SKY/WX    TMP DP  RH WIND       PRES   REMARKS
PONTIAC        CLEAR     62  60  92 NW7       29.92F
BLOOMINGTON    CLEAR     63  55  75 W9        29.96R
DECATUR        CLEAR     65  55  70 W10       29.96R
PEORIA         PTCLDY    64  56  75 W6        29.95R
LACON*         CLEAR     63  56  80 NW6       29.92F
LINCOLN*       CLEAR     64  56  77 CALM      29.97R
SPRINGFIELD    CLEAR     62  58  86 W6        29.98R
TAYLORVILLE    CLEAR     63  56  77 NW6       29.97S
$$

ILZ033-039-045-046-055>057-062-063-240800-
EAST-CENTRAL ILLINOIS

CITY           SKY/WX    TMP DP  RH WIND       PRES   REMARKS
CHAMPAIGN      CLEAR     59  55  87 W5        29.94R
RANTOUL*       CLEAR     63  58  86 W7        29.94R
MATTOON        PTCLDY    61  58  90 W7        29.94R
PARIS*         PTCLDY    62  59  89 NW7       29.93S
$$

ILZ079-100>102-240800-
SOUTHWEST ILLINOIS

CITY           SKY/WX    TMP DP  RH WIND       PRES   REMARKS
ALTON          CLEAR     64  57  80 NW5       30.00R
BELLEVILLE     CLOUDY    64  56  73 NW7       29.99R
CAHOKIA*       CLEAR     70  53  54 NW8       29.99R
SPARTA*        MOCLDY    68  55  62 N3        29.99S
$$

ILZ064>066-069>071-074>076-080>082-084>086-088>090-092>094-240800-
SOUTH-CENTRAL ILLINOIS

CITY           SKY/WX    TMP DP  RH WIND       PRES   REMARKS
CARBONDALE     MOCLDY    67  61  81 NW8       29.97R
CAIRO*         CLOUDY    70  62  75 NW7       29.95R
EFFINGHAM*     PTCLDY    65  59  80 W5        29.97R
MARION         MOCLDY    70  61  73 N3        29.98R
MT. VERNON     MOCLDY    64  60  87 CALM      29.97R
CENTRALIA*     CLOUDY    66  60  79 NW3       29.97R
SALEM*         PTCLDY    67  58  74 NW5       29.97R
METROPOLIS*    MOCLDY    67  64  87 NW5       29.95R
$$

ILZ067-068-072-073-078-083-087-091-240800-
SOUTHEAST ILLINOIS

CITY           SKY/WX    TMP DP  RH WIND       PRES   REMARKS
LAWRENCEVILLE  CLOUDY    65  61  87 NW7       29.93R
FLORA*         CLOUDY    68  59  73 NW7       29.96R
FAIRFIELD*     PTCLDY    68  59  74 CALM      29.94R
HARRISBURG*    PTCLDY    69  62  77 N3        29.96R
ROBINSON*      CLOUDY    64  59  85 NW3       29.94R
CARMI*         PTCLDY    67  62  81 NW8       29.94R
$$

ABBREVIATIONS USED IN REMARKS
   TC - TEMPERATURE IN CELSIUS
  WCI - WIND CHILL INDEX
   HX - HEAT INDEX
  VSB - VISIBILITY
$$





USA.gov is the U.S. government's official web portal to all federal, state and local government web resources and services.